Skagway, AK

2:16 PM AKST on February 10, 2016 (GMT -0900)
Skagway

Weather History for PAGY - November, 2012

Change the Weather History Date:

Friday, November 9, 2012

  Actual Average Record
Temperature  
Mean Temperature 26 °F -  
Max Temperature 28 °F 38 °F 46 °F (1968)
Min Temperature 25 °F 31 °F 7 °F (1989)
Degree Days  
Heating Degree Days 38    
Moisture  
Dew Point 11 °F    
Average Humidity 53    
Maximum Humidity 66    
Minimum Humidity 45    
Precipitation  
Precipitation 0.00 in - - ()
Sea Level Pressure  
Sea Level Pressure 30.28 in    
Wind  
Wind Speed 10 mph (NNE)    
Max Wind Speed 21 mph    
Max Gust Speed 32 mph    
Visibility 10 miles    
Events      
Averages and records for this station are not official NWS values.
T = Trace of Precipitation, MM = Missing Value Source: NWS Daily Summary

Daily Weather History Graph

Daily Weather History Graph

Search for Another Location

Airport or City:

Trip Planner

Search our weather history database for the weather conditions in past years. The results will help you decide how hot, cold, wet, or windy it might be!

Date:

Astronomy

Nov. 09, 2012 Rise Set
Actual Time 7:42 AM AKST 3:46 PM AKST
Civil Twilight 6:56 AM AKST 4:33 PM AKST
Nautical Twilight 6:06 AM AKST 5:22 PM AKST
Astronomical Twilight 5:18 AM AKST 6:10 PM AKST
Moon 1:45 AM AKST (11/9) 2:00 PM AKST (11/9)
Length of Visible Light 9h 36m
Length of Day
8h 03m
Waning Crescent, 22% of the Moon is Illuminated
Nov 9
Waning Crescent
Nov 13
New
Nov 20
First Quarter
Nov 28
Full
Dec 6
Last Quarter

Hourly Weather History & Observations

Time (AKST) Temp. Windchill Dew Point Humidity Pressure Visibility Wind Dir Wind Speed Gust Speed Precip Events Conditions
12:53 AM 27.0 °F 16.7 °F 10.0 °F 49% 30.46 in 10.0 mi NNE 11.5 mph 20.7 mph N/A   Clear
1:53 AM 27.0 °F 23.0 °F 10.0 °F 49% 30.47 in 10.0 mi NNE 3.5 mph 20.7 mph N/A   Clear
3:53 AM 26.1 °F 16.8 °F 10.0 °F 51% 30.44 in 10.0 mi North 9.2 mph - N/A   Clear
4:53 AM 26.1 °F 16.8 °F 10.0 °F 51% 30.43 in 10.0 mi NNE 9.2 mph 24.2 mph N/A   Clear
5:53 AM 27.0 °F 18.0 °F 10.0 °F 49% 30.42 in 10.0 mi North 9.2 mph 24.2 mph N/A   Clear
6:53 AM 26.1 °F 15.6 °F 10.0 °F 51% 30.40 in 10.0 mi NNE 11.5 mph 23.0 mph N/A   Clear
7:53 AM 26.1 °F 15.6 °F 10.0 °F 51% 30.38 in 10.0 mi NNE 11.5 mph 25.3 mph N/A   Clear
8:53 AM 26.1 °F 14.0 °F 9.0 °F 49% 30.38 in 10.0 mi NE 15.0 mph 25.3 mph N/A   Clear
9:53 AM 27.0 °F 15.6 °F 10.0 °F 49% 30.37 in 10.0 mi NE 13.8 mph 26.5 mph N/A   Clear
10:53 AM 27.0 °F 13.9 °F 10.0 °F 49% 30.35 in 10.0 mi NNE 18.4 mph 32.2 mph N/A   Clear
11:53 AM 28.0 °F 14.6 °F 9.0 °F 45% 30.32 in 10.0 mi NE 20.7 mph 32.2 mph N/A   Clear
12:53 PM 28.9 °F 15.8 °F 10.0 °F 45% 30.29 in 10.0 mi NE 20.7 mph 28.8 mph N/A   Clear
1:53 PM 28.9 °F 17.7 °F 10.0 °F 45% 30.25 in 10.0 mi NE 15.0 mph 21.9 mph N/A   Clear
2:53 PM 28.0 °F 14.9 °F 10.0 °F 47% 30.22 in 10.0 mi NE 19.6 mph 28.8 mph N/A   Clear
3:53 PM 28.0 °F 17.5 °F 10.0 °F 47% 30.20 in 10.0 mi NNE 12.7 mph 18.4 mph N/A   Clear
4:53 PM 27.0 °F 21.6 °F 10.9 °F 51% 30.19 in 10.0 mi Variable 4.6 mph - N/A   Clear
5:53 PM 26.1 °F - 14.0 °F 60% 30.17 in 10.0 mi Calm Calm - N/A   Clear
6:53 PM 26.1 °F - 14.0 °F 60% 30.15 in 10.0 mi Calm Calm - N/A   Scattered Clouds
7:53 PM 26.1 °F - 15.1 °F 63% 30.13 in 10.0 mi Calm Calm - N/A   Overcast
8:53 PM 25.0 °F - 14.0 °F 63% 30.12 in 10.0 mi Calm Calm - N/A   Mostly Cloudy
9:53 PM 26.1 °F - 15.1 °F 63% 30.12 in 10.0 mi Calm Calm - N/A   Overcast
10:53 PM 26.1 °F - 15.1 °F 63% 30.11 in 10.0 mi Calm Calm - N/A   Overcast
11:53 PM 26.1 °F - 16.0 °F 66% 30.10 in 10.0 mi Calm Calm - N/A   Overcast